Weather in Pravdinsk

Russia / Kaliningrad Oblast     54°26′46″N   21°01′07″E
temp.,
°C
wind,
m/s
gust,
m/s
humid.,
%
clouds,
%
prec.,
mm/h
press.,
hPa
HPBL,
m
13 june, sun
sun1323:00+12w614802 0.0 1007575
02:00+13wnw6137956 0.1 1007550
05:00+12wnw411939 1.3 1007287
08:00+14nw7129361 2.7 1009956
11:00+17nnw813715 1.1 10121524
14:00+17nw812685 1.6 10141481
17:00+17nnw610670 0.2 10171124
20:00+13nw510801 0.2 1018507
14 june, mon
mon1423:00+9nw37950 0.0 1020136
02:00+8nw34934 0.0 102150
05:00+9nw229057 0.0 102113
08:00+14ese117244 0.0 1021338
11:00+18wsw115817 0.0 1021942
14:00+20w12555 0.0 10201373
17:00+20wnw33635 0.0 10191200
20:00+16w11774 0.0 101811
15 june, tue
tue1523:00+12ssw228133 0.0 101814
02:00+12ssw3894100 0.0 1017148
05:00+13sw3789100 0.0 1016159
08:00+17wsw4881100 0.0 1016339
11:00+18wnw4680100 0.0 1016696
14:00+17nw5785100 0.2 1017686
17:00+15wnw377532 0.0 1017468
20:00+13nw36835 0.0 1018156
16 june, wed
wed1623:00+9wnw22945 0.0 101924
02:00+8w229235 0.0 102011
05:00+9sw229447 0.0 102025
08:00+15wsw237879 0.0 1021368
11:00+19w22625 0.0 10211027
14:00+21wnw21567 0.0 10211564
17:00+20n326316 0.0 10211096
20:00+15nne24844 0.0 102275
17 june, thu
thu1723:00+12ene22854 0.0 102311
02:00+11ese22935 0.0 102320
05:00+11se22920 0.0 102340
08:00+17se34751 0.0 1024311
11:00+21se34625 0.0 1024966
14:00+23se45555 0.0 10231391
17:00+23sse36655 0.0 10221137
20:00+19ese36805 0.0 1022119